Regional Weather Roundup
Issued by NWS Northern Indiana

Home | Current Version | Previous Version | Text Only | Print | Product List | Glossary Off
Versions: 1 2 3 4 5 6 7 8 9 10 11 12 13 14 15 16 17 18 19 20 21 22 23 24 25 26 27 28 29 30 31 32 33 34 35 36 37 38 39 40 41 42 43 44 45 46 47 48 49 50

000
ASUS43 KIWX 041600
RWRIWX

KIWX WEATHER ROUNDUP
NATIONAL WEATHER SERVICE NORTHERN INDIANA
1200 PM EDT FRI SEP 04 2015

NOTE: "FAIR" INDICATES FEW OR NO CLOUDS BELOW 12,000 FEET WITH NO
SIGNIFICANT WEATHER AND/OR OBSTRUCTIONS TO VISIBILITY.

* THESE STATIONS ARE NOT UNDER NWS QUALITY CONTROL. THEY ALSO MAY NOT
  REPORT WEATHER SUCH AS PRECIPITATION OR FOG.

INZ001>027-041700-
NORTHERN INDIANA

CITY           SKY/WX    TMP DP  RH WIND       PRES   REMARKS
GARY*          MOSUNNY   79  68  69 VRB3      30.04S
SOUTH BEND     MOSUNNY   76  67  73 N3        30.05S
ELKHART*       MOSUNNY   75  68  78 CALM      30.05S
GOSHEN         SUNNY     77  69  76 N5        30.04R
ANGOLA*        PTSUNNY   79  70  73 NW6       30.04S
FORT WAYNE     MOSUNNY   85  71  63 W7        30.02F
PERU/GRISSOM   MOSUNNY   85  71  63 VRB5      30.03S

$$
INZ028>050-041700-
CENTRAL INDIANA

CITY           SKY/WX    TMP DP  RH WIND       PRES   REMARKS
LAFAYETTE      SUNNY     88  67  49 W5        30.02S
KOKOMO*        SUNNY     88  70  55 NW6       30.03F
MUNCIE*        SUNNY     85  70  60 W6        30.05S
INDIANAPOLIS   MOSUNNY   88  67  49 W8        30.05R

$$
MIZ043>046-050>051-056>058-064>065-071>073-077>080-041700-
SOUTHWEST LOWER MICHIGAN

CITY           SKY/WX    TMP DP  RH WIND       PRES   REMARKS
BATTLE CREEK   MOSUNNY   77  64  64 VRB5      30.04S
BENTON HARBOR  CLOUDY    73  66  78 VRB6      30.04S
COLDWATER*     CLOUDY    74  66  75 W6        30.05S
HILLSDALE*     MOSUNNY   74  69  85 NW7       30.05S HAZE
HOLLAND        MOSUNNY   75  67  76 SW9       30.04R
GRAND RAPIDS   CLOUDY    72  67  84 SW9       30.03R
KALAMAZOO      PTSUNNY   78  64  61 W6        30.04R
STURGIS*       SUNNY     75  68  78 W6        30.04S
THREE RIVERS*  CLOUDY    75  67  74 NW5       30.05S

$$
OHZ001>008-015>018-024>025-041700-
NORTHWEST OHIO

CITY           SKY/WX    TMP DP  RH WIND       PRES   REMARKS
DEFIANCE       MOSUNNY   83  71  67 S5        30.02S
FINDLAY        PTSUNNY   84  71  65 S12       30.03R
TOLEDO EXPRESS MOSUNNY   80  71  74 SW6       30.02S
TOLEDO METCALF MOSUNNY   82  70  66 S9        30.03S
LIMA           MOSUNNY   80  70  71 S6        30.05R

$$
AND FOR LAKE MICHIGAN COASTAL AND OPEN LAKE BUOY OBSERVATIONS

STATION/POSITION TEMP    WIND        PRES    VSBY  WAVE
                 AIR SEA DIR/SP/G                  HT/PER
                 (F)     (DEG/KT/KT) (MB)    (MI)  (FT/S)
CALUMET HARBOR    73     360/  4/  7   N/A
MICHIGAN CITY     74     320/  4/  4   N/A
BURNS HARBOR      72      20/  5/  6 1017.3R
SAINT JOSEPH      75     240/  4/  5 1017.9S
SOUTH LAKE BUOY   67 71  320/  6/  8 1016.8          1/ 4
4 MI NW BRIDGMAN  72 74  360/  2/  4   N/A           1/ 4
MICHIGAN CITY     72 74   20/  2/  4   N/A           1/ 4

$$
&&



USA.gov is the U.S. government's official web portal to all federal, state and local government web resources and services.